Location: Newark
(44.3248°N, 23.7839°E)
Time: 19:18:52
(UTC+00:00)

NOAA 19 - Pass Details

Date: 25 April 2024
Orbit: 839 x 859 km, 99.0° (Epoch: 29 May)

Event Time Altitude Azimuth Distance (km) Brightness Sun altitude
Exits shadow 20:04:44 12° 217° (SW) 2,288 7.3 -24.2°
Maximum altitude 20:08:31 24° 266° (W) 1,666 7.0 -24.6°
Drops below altitude 10° 20:12:54 10° 320° (NW) 2,465 8.7 -25.0°
Sets 20:15:44 0° 334° (NNW) 3,404 9.7 -25.3°
